Погода в Рыбном

Россия / Курганская область     54°23′54″N   63°30′39″E
темп.,
°C
ветер,
м/с
пор.,
м/с
влажн.,
%
обл.,
%
осадки,
мм/ч
давл.,
гПа
погр.,
м
1 декабря, ср
ср123:00−4ю71773100 0.0 1016318
02:00−3ю81973100 0.0 1014390
05:00−2ююз71776100 0.0 1013398
08:00−1ю81885100 1.1 1012438
11:00−1ю91884100 2.1 1011428
14:000ю71886100 1.4 1010435
17:000ю71880100 1.4 1008425
20:00+1ю8198096 0.0 1006472
2 декабря, чт
чт223:00+2ю92275100 0.0 1003565
02:00+2ю81979100 0.0 1002557
05:00+1ю7168180 0.0 1000499
08:000ююз7158639 0.0 1000393
11:00+1ююз51090100 0.0 1000312
14:00+1юз499398 0.0 1001242
17:00+1з4995100 0.0 1003238
20:00−3зсз41189100 0.0 1005209
3 декабря, пт
пт323:00−6з39885 0.0 1007124
02:00−7зюз38925 0.0 1009111
05:00−7зюз512895 0.0 1010212
08:00−6зюз61389100 0.0 1012264
11:00−5зюз5128998 0.0 1013312
14:00−4зюз612875 0.0 1014404
17:00−5юз512886 0.0 1016263
20:00−6зюз512885 0.0 1018235
4 декабря, сб
сб423:00−6зюз41191100 0.0 1019214
02:00−7юз49935 0.0 1021140
05:00−7зюз49935 0.0 1023121
08:00−7юз36925 0.0 102575
11:00−5ююз489131 0.0 1025124
14:00−2ююз4109010 0.0 1025195
17:00−4ююз4119566 0.0 1025178
20:00−3юз411955 0.0 1025189
5 декабря, вс
вс523:00−2юз513925 0.0 1024249
02:00−2юз616885 0.0 1023307
05:00−2юз61584100 0.0 1022306
08:00−3юз6148565 0.0 1021261
11:00−2юз6148480 0.0 1021294
14:00−1юз6148289 0.0 1020314
17:00−4юз5128775 0.0 1020220
20:00−5зюз379288 0.0 1021127